GW5591 Weather Reports


time (UTC)temp
F
wind
direction
speed
knots
gust
knots
rain 1hr
in
rain 24hr
in
rain mn
in
humidity
%
barometer
mb
20260509201328 59 65 0.9 2.6 0.00 0.12 0.12 63 1009.8
20260509200825 60 264 1.7 2.6 0.00 0.12 0.12 63 1010.0
20260509200320 60 162 1.7 6.1 0.00 0.12 0.12 62 1010.2
20260509195816 60 145 0.0 1.7 0.00 0.12 0.12 64 1010.1
20260509195311 60 164 1.7 2.6 0.00 0.12 0.12 64 1010.2
20260509194810 60 116 0.0 2.6 0.00 0.12 0.12 64 1010.1
20260509194307 60 124 0.9 0.9 0.00 0.12 0.12 62 1010.3
20260509193804 59 144 1.7 2.6 0.00 0.12 0.12 62 1010.3
20260509193304 59 128 0.0 3.5 0.00 0.12 0.12 64 1010.1
20260509192800 58 121 1.7 1.7 0.00 0.12 0.12 64 1010.2
20260509192255 58 163 0.9 1.7 0.00 0.12 0.12 70 1010.0
20260509191751 58 147 0.9 1.7 0.00 0.12 0.12 66 1010.3
20260509191248 58 113 0.0 0.9 0.00 0.12 0.12 67 1010.2
20260509190743 58 186 0.9 1.7 0.00 0.12 0.12 67 1010.1
20260509190241 58 139 0.0 0.9 0.00 0.12 0.12 68 1010.3
20260509185738 58 113 0.0 0.9 0.00 0.12 0.12 66 1010.1
20260509185234 58 143 0.0 0.9 0.00 0.12 0.12 66 1010.2
20260509184732 58 159 0.0 1.7 0.00 0.12 0.12 67 1010.0
20260509184229 58 278 0.9 1.7 0.00 0.12 0.12 66 1010.1
20260509183725 58 96 0.0 0.9 0.00 0.12 0.12 64 1010.2
20260509183221 58 32 0.9 1.7 0.00 0.12 0.12 65 1010.2
20260509182716 58 143 0.9 1.7 0.00 0.12 0.12 70 1010.1
20260509182214 57 136 0.9 0.9 0.00 0.12 0.12 68 1010.1
20260509181711 57 107 0.9 1.7 0.00 0.12 0.12 67 1010.1
20260509181209 56 262 0.0 0.9 0.00 0.12 0.12 73 1010.1
20260509180706 56 101 0.9 0.9 0.00 0.12 0.12 73 1010.4
20260509180202 56 109 0.0 0.9 0.00 0.12 0.12 72 1010.3
20260509175658 56 104 0.0 0.0 0.00 0.12 0.12 77 1010.3
20260509175155 55 103 0.0 0.9 0.00 0.12 0.12 78 1010.2
20260509174651 55 95 0.0 0.0 0.00 0.12 0.12 78 1010.3
20260509174151 54 89 0.0 0.0 0.00 0.12 0.12 81 1010.1
20260509173647 54 114 0.0 0.9 0.00 0.12 0.12 79 1010.4
20260509173143 54 124 0.0 0.0 0.00 0.12 0.12 80 1010.4
20260509172639 54 124 0.0 0.9 0.00 0.12 0.12 76 1010.4
20260509172136 55 129 0.0 0.9 0.00 0.12 0.12 77 1010.2
20260509171631 54 124 0.0 0.0 0.00 0.12 0.12 78 1010.3
20260509171128 54 123 0.0 0.9 0.00 0.12 0.12 78 1010.3
20260509170625 54 117 0.0 0.9 0.00 0.12 0.12 79 1010.5
20260509170121 54 115 0.9 0.9 0.00 0.12 0.12 78 1010.4
20260509165619 55 158 0.0 0.9 0.00 0.12 0.12 80 1010.4
20260509165115 54 34 0.9 0.9 0.00 0.12 0.12 81 1010.4
20260509164611 54 111 0.0 0.9 0.00 0.12 0.12 84 1010.2
20260509164107 53 111 0.0 0.9 0.00 0.12 0.12 87 1010.4
20260509163605 53 109 0.0 0.0 0.00 0.12 0.12 87 1010.4
20260509163100 52 149 0.0 0.9 0.00 0.12 0.12 86 1010.6
20260509162558 53 158 0.0 0.9 0.00 0.12 0.12 85 1010.6
20260509162054 53 176 0.0 0.9 0.00 0.12 0.12 85 1010.6
20260509161550 53 176 0.0 0.9 0.00 0.12 0.12 85 1010.7
20260509161050 53 288 1.7 1.7 0.00 0.12 0.12 86 1010.8
20260509160547 53 213 0.0 0.9 0.00 0.12 0.12 85 1010.7
20260509160042 53 310 0.0 0.9 0.00 0.12 0.12 87 1010.7
20260509155539 52 105 0.0 0.9 0.00 0.12 0.12 89 1010.6
20260509155035 51 105 0.0 0.0 0.00 0.12 0.12 90 1010.8
20260509154531 51 105 0.0 0.0 0.00 0.12 0.12 90 1011.1
20260509154029 51 103 0.0 0.0 0.00 0.12 0.12 91 1011.1
20260509153525 51 103 0.0 0.0 0.00 0.12 0.12 91 1010.9
20260509153022 51 100 0.0 0.0 0.00 0.12 0.12 91 1011.1
20260509152518 51 97 0.0 0.0 0.07 0.12 0.12 91 1011.2
20260509152015 51 102 0.0 0.0 0.07 0.12 0.12 91 1011.1
20260509151511 50 102 0.0 0.0 0.00 0.11 0.11 91 1011.1
20260509151010 50 102 0.0 0.0 0.00 0.11 0.11 91 1010.9
20260509150507 50 104 0.0 0.0 0.00 0.11 0.11 92 1011.1
20260509150005 50 104 0.0 0.0 0.00 0.11 0.11 92 1011.1
20260509145500 50 104 0.0 0.0 0.00 0.11 0.11 91 1010.9
20260509144955 50 103 0.0 0.0 0.00 0.11 0.11 91 1010.8
20260509144453 50 107 0.0 0.0 0.00 0.11 0.11 91 1011.1
20260509143950 50 106 0.0 0.0 0.00 0.11 0.11 92 1010.8
20260509143447 50 106 0.0 0.0 0.00 0.11 0.11 91 1010.7
20260509142943 50 107 0.0 0.0 0.00 0.11 0.11 92 1010.9
20260509142440 50 109 0.0 0.9 0.00 0.11 0.11 91 1010.8
20260509141935 50 107 0.0 0.9 0.00 0.11 0.11 92 1010.9
20260509141432 50 107 0.0 0.0 0.00 0.11 0.11 93 1010.9
20260509140929 50 107 0.0 0.0 0.00 0.11 0.11 93 1010.9
20260509140425 50 107 0.0 0.0 0.00 0.11 0.11 93 1010.8
20260509135924 49 105 0.0 0.0 0.00 0.11 0.11 93 1010.8
20260509135421 49 116 0.0 0.0 0.00 0.11 0.11 93 1010.7
20260509134918 49 124 0.0 0.0 0.00 0.11 0.11 94 1010.8
20260509134415 49 124 0.0 0.9 0.00 0.11 0.11 94 1011.1
20260509133912 48 124 0.9 0.9 0.00 0.11 0.11 94 1010.9
20260509133409 48 123 0.0 0.9 0.00 0.11 0.11 94 1011.2
20260509132908 48 100 0.0 0.9 0.00 0.11 0.11 94 1011.2
20260509132405 48 99 0.0 0.0 0.00 0.11 0.11 94 1011.4
20260509131902 48 99 0.0 0.0 0.05 0.11 0.11 94 1011.3
20260509131359 48 111 0.0 0.0 0.00 0.10 0.10 94 1011.4
20260509130856 48 92 0.0 0.0 0.07 0.10 0.10 94 1011.5
20260509130351 48 115 0.0 0.0 0.07 0.10 0.10 94 1011.1
20260509125848 48 115 0.0 0.9 0.00 0.09 0.09 95 1011.5
20260509125344 48 102 0.0 0.0 0.00 0.09 0.09 95 1011.3
20260509124841 48 100 0.0 0.0 0.05 0.09 0.09 95 1011.5
20260509124338 48 101 0.0 0.0 0.05 0.09 0.09 95 1011.5
20260509123836 48 100 0.0 0.0 0.07 0.08 0.08 94 1011.4
20260509123333 48 100 0.0 0.0 0.07 0.08 0.08 94 1011.3
20260509122828 48 100 0.0 0.9 0.00 0.07 0.07 94 1011.5
20260509122326 48 94 0.0 0.0 0.00 0.07 0.07 94 1011.4
20260509121822 48 94 0.0 0.0 0.05 0.07 0.07 94 1011.3
20260509121320 48 94 0.0 0.0 0.05 0.07 0.07 94 1011.5
20260509120818 48 93 0.0 0.0 0.00 0.06 0.06 94 1011.7
20260509120315 48 92 0.0 0.0 0.00 0.06 0.06 94 1011.4
20260509115814 48 91 0.0 0.9 0.00 0.06 0.06 94 1011.3
20260509115310 48 136 0.0 0.0 0.00 0.06 0.06 94 1011.3
20260509114808 48 136 0.0 0.0 0.07 0.06 0.06 94 1011.3
20260509114306 47 136 0.0 0.0 0.07 0.06 0.06 94 1011.3
20260509113805 47 136 0.0 0.0 0.00 0.05 0.05 94 1011.3
20260509113301 47 136 0.0 0.0 0.00 0.05 0.05 94 1011.4
20260509112758 47 137 0.0 0.0 0.05 0.05 0.05 94 1011.3
20260509112256 47 137 0.0 0.0 0.05 0.05 0.05 94 1011.4
20260509111752 47 108 0.0 0.0 0.00 0.04 0.04 93 1011.3
20260509111249 47 107 0.0 0.0 0.00 0.04 0.04 93 1011.2
20260509110747 47 107 0.0 0.0 0.00 0.04 0.04 93 1011.1
20260509110243 47 106 0.0 0.0 0.00 0.04 0.04 93 1011.3
20260509105742 47 105 0.0 0.9 0.00 0.04 0.04 93 1011.1
20260509105239 47 100 0.0 0.0 0.07 0.04 0.04 93 1011.3
20260509104736 47 117 0.0 0.0 0.07 0.04 0.04 93 1011.2
20260509104233 47 119 0.0 0.9 0.00 0.03 0.03 93 1011.1
20260509103731 47 118 0.9 0.9 0.00 0.03 0.03 92 1010.9
20260509103228 47 119 0.0 1.7 0.00 0.03 0.03 92 1011.2
20260509102726 47 112 0.0 0.9 0.05 0.03 0.03 91 1011.3
20260509102222 47 124 0.0 1.7 0.05 0.03 0.03 91 1011.4
20260509101719 47 41 0.0 2.6 0.00 0.02 0.02 91 1011.5
20260509101215 47 123 0.0 0.9 0.00 0.02 0.02 90 1011.4
20260509100713 47 125 0.0 0.9 0.07 0.02 0.02 90 1011.4
20260509100210 47 130 0.0 0.9 0.07 0.02 0.02 89 1011.4
20260509095707 47 144 0.0 1.7 0.00 0.01 0.01 89 1011.5
20260509095204 47 120 0.9 0.9 0.00 0.01 0.01 88 1011.6
20260509094700 48 155 0.9 0.9 0.00 0.01 0.01 89 1011.5
20260509094157 48 131 0.0 0.9 0.00 0.01 0.01 88 1011.4
20260509093656 48 138 0.9 0.9 0.00 0.01 0.01 87 1011.7
20260509093153 48 125 0.9 0.9 0.05 0.01 0.01 85 1011.3
20260509092650 49 163 0.9 0.9 0.05 0.01 0.01 83 1011.5
20260509092149 49 120 0.9 0.9 0.00 0.00 0.00 81 1011.7
20260509091646 50 124 0.0 1.7 0.00 0.00 0.00 80 1011.6
20260509091142 50 145 0.9 1.7 0.00 0.00 0.00 78 1011.7
20260509090640 51 65 0.0 1.7 0.00 0.00 0.00 76 1011.6
20260509090137 51 135 0.9 0.9 0.00 0.00 0.00 75 1011.7
20260509085635 51 170 0.9 5.2 0.00 0.00 0.00 72 1011.7
20260509085130 52 153 0.0 1.7 0.00 0.00 0.00 71 1011.5
20260509084628 52 179 0.9 1.7 0.00 0.00 0.00 71 1011.5
20260509084125 52 242 0.0 2.6 0.00 0.00 0.00 71 1011.5
20260509083622 52 41 0.9 0.9 0.00 0.00 0.00 70 1011.4
20260509083119 52 78 0.0 0.9 0.00 0.00 0.00 67 1011.3
20260509082616 53 156 0.0 1.7 0.00 0.00 0.00 66 1011.3
20260509082113 53 103 0.0 0.9 0.00 0.00 0.00 64 1011.1
20260509081610 52 148 0.0 0.9 0.00 0.00 0.00 62 1010.9
20260509081107 52 113 0.0 0.9 0.00 0.00 0.00 62 1010.9
20260509080605 52 241 1.7 2.6 0.00 0.00 0.00 60 1010.8
20260509075600 51 113 0.0 0.9 0.00 0.00 0.00 62 1010.8
20260509075058 51 22 0.0 0.0 0.00 0.00 0.00 65 1010.9
20260509074554 51 22 0.0 0.9 0.00 0.00 0.00 66 1010.8
20260509074051 51 22 0.0 0.0 0.00 0.00 0.00 67 1010.7
20260509073548 51 17 0.9 0.9 0.00 0.00 0.00 64 1010.7
20260509073044 51 36 0.0 0.0 0.00 0.00 0.00 62 1010.6
20260509072541 51 36 0.0 0.0 0.00 0.00 0.00 63 1010.8
20260509072038 51 35 0.0 0.0 0.00 0.00 0.00 64 1010.6
20260509071534 51 34 0.0 0.0 0.00 0.00 0.00 65 1010.6
20260509071032 51 33 0.0 0.0 0.00 0.00 0.00 64 1010.5
20260509070529 51 13 0.0 0.0 0.00 0.00 0.00 65 1010.6
20260509070025 51 31 0.9 0.9 0.00 0.00 0.00 65 1010.6
20260509065520 50 25 0.9 1.7 0.00 0.00 0.00 64 1010.8
20260509065017 50 43 0.0 0.0 0.00 0.00 0.00 65 1010.7
20260509064515 50 43 0.0 0.0 0.00 0.00 0.00 66 1010.5
20260509064013 50 43 0.0 0.0 0.00 0.00 0.00 68 1010.5
20260509063508 50 43 0.0 0.9 0.00 0.00 0.00 68 1010.4
20260509063005 50 43 0.0 0.0 0.00 0.00 0.00 65 1010.6
20260509062502 50 43 0.0 0.0 0.00 0.00 0.00 65 1010.8
20260509062000 50 43 0.0 0.9 0.00 0.00 0.00 65 1010.9
20260509061457 50 43 0.0 0.9 0.00 0.00 0.00 63 1010.8
20260509060954 51 44 0.0 0.0 0.00 0.00 0.00 62 1010.9
20260509060452 51 44 0.0 0.0 0.00 0.00 0.00 62 1010.9
20260509055947 52 43 0.0 0.0 0.00 0.00 0.00 64 1011.2
20260509055442 52 43 0.0 0.0 0.00 0.00 0.00 64 1011.1
20260509054939 52 43 0.0 0.0 0.00 0.00 0.00 59 1011.3
20260509054436 52 43 0.0 0.0 0.00 0.00 0.00 62 1011.1
20260509053934 52 43 0.0 0.0 0.00 0.00 0.00 66 1011.3
20260509053432 52 43 0.0 0.0 0.00 0.00 0.00 63 1011.3
20260509052929 52 43 0.0 0.0 0.00 0.00 0.00 63 1011.6
20260509052426 52 44 0.0 0.0 0.00 0.00 0.00 60 1011.7
20260509051924 52 43 0.0 0.9 0.00 0.00 0.00 62 1011.9
20260509051422 52 43 0.0 0.0 0.00 0.00 0.00 59 1011.9
20260509050919 52 43 0.0 0.0 0.00 0.00 0.00 66 1011.7
20260509050415 52 43 0.0 0.0 0.00 0.00 0.00 62 1011.8
20260509045912 52 43 0.0 0.0 0.00 0.00 0.00 62 1011.7
20260509045409 53 43 0.0 0.0 0.00 0.00 0.00 63 1011.9
20260509044906 53 43 0.0 0.9 0.00 0.00 0.00 62 1011.9
20260509044404 53 43 0.0 0.9 0.00 0.00 0.00 62 1011.8
20260509043900 53 43 0.0 0.0 0.00 0.00 0.00 61 1012.0
20260509043356 53 43 0.0 0.0 0.00 0.00 0.00 61 1011.8
20260509042852 53 43 0.0 0.0 0.00 0.00 0.00 60 1012.0
20260509042349 53 43 0.0 0.0 0.00 0.00 0.00 60 1012.1
20260509041846 53 43 0.0 0.0 0.00 0.00 0.00 61 1012.1
20260509041342 53 43 0.0 0.0 0.00 0.00 0.00 61 1012.1
20260509040841 53 43 0.0 0.0 0.00 0.00 0.00 62 1012.0
20260509040338 54 43 0.0 0.0 0.00 0.00 0.00 61 1012.1
20260509035835 54 43 0.0 0.0 0.00 0.00 0.00 61 1012.0
20260509035332 54 43 0.0 0.0 0.00 0.00 0.00 59 1012.1
20260509034828 54 43 0.0 0.0 0.00 0.00 0.00 59 1012.0
20260509034326 54 43 0.0 0.0 0.00 0.00 0.00 59 1012.1
20260509033823 54 43 0.0 0.0 0.00 0.00 0.00 59 1012.2
20260509033320 54 43 0.0 0.0 0.00 0.00 0.00 60 1012.3
20260509032817 54 43 0.0 0.0 0.00 0.00 0.00 60 1012.0
20260509032314 54 43 0.0 0.0 0.00 0.00 0.00 60 1012.0
20260509031812 54 43 0.0 0.0 0.00 0.00 0.00 60 1012.1
20260509031309 53 43 0.0 0.0 0.00 0.00 0.00 58 1012.2
20260509030807 53 43 0.0 0.0 0.00 0.00 0.00 60 1012.2
20260509030304 53 43 0.0 0.0 0.00 0.00 0.00 62 1012.1
20260509025800 53 43 0.0 0.0 0.00 0.00 0.00 61 1012.2
20260509025256 54 43 0.0 0.0 0.00 0.00 0.00 60 1012.2
20260509024752 54 43 0.0 0.0 0.00 0.00 0.00 59 1012.6
20260509024248 54 43 0.0 0.0 0.00 0.00 0.00 58 1012.3
20260509023745 54 43 0.0 0.0 0.00 0.00 0.00 60 1012.5
20260509023243 54 43 0.0 0.0 0.00 0.00 0.00 60 1012.5
20260509022738 54 42 0.0 0.0 0.00 0.00 0.00 60 1012.5
20260509022236 54 46 0.0 0.9 0.00 0.00 0.00 60 1012.6
20260509021733 54 45 0.0 0.9 0.00 0.00 0.00 62 1012.6
20260509021230 54 50 0.0 0.9 0.00 0.00 0.00 62 1012.5
20260509020728 54 50 0.0 0.9 0.00 0.00 0.00 61 1012.5
20260509020225 54 51 0.0 0.0 0.00 0.00 0.00 60 1012.6
20260509015723 54 51 0.0 0.9 0.00 0.00 0.00 61 1012.5
20260509015221 54 51 0.0 0.9 0.00 0.00 0.00 60 1012.2
20260509014717 54 51 0.0 0.0 0.00 0.00 0.00 60 1012.5
20260509014215 54 51 0.0 0.0 0.00 0.00 0.00 62 1012.0
20260509013711 54 51 0.0 0.0 0.00 0.00 0.00 59 1012.0
20260509013207 54 51 0.0 0.0 0.00 0.00 0.00 60 1012.2
20260509012703 54 51 0.0 0.0 0.00 0.00 0.00 60 1012.1
20260509012200 54 51 0.0 0.9 0.00 0.00 0.00 63 1012.5
20260509011658 54 52 0.0 0.9 0.00 0.00 0.00 61 1012.1
20260509011155 54 51 0.0 0.9 0.00 0.00 0.00 60 1012.0
20260509010653 54 48 0.0 0.0 0.00 0.00 0.00 59 1011.9
20260509010149 54 45 0.0 0.9 0.00 0.00 0.00 59 1011.9
20260509005647 54 42 0.0 0.9 0.00 0.00 0.00 60 1012.0
20260509005143 54 23 0.0 0.9 0.00 0.00 0.00 60 1011.9
20260509004638 54 20 0.0 0.0 0.00 0.00 0.00 59 1012.0
20260509004136 54 27 0.9 0.9 0.00 0.00 0.00 58 1012.0
20260509003634 54 69 0.0 0.0 0.00 0.00 0.00 59 1011.9
20260509003131 54 69 0.0 0.9 0.00 0.00 0.00 58 1011.9
20260509002629 54 94 0.0 0.9 0.00 0.00 0.00 59 1012.1
20260509002126 54 101 0.0 0.0 0.00 0.00 0.00 56 1011.9
20260509001624 54 36 0.0 1.7 0.00 0.00 0.00 57 1012.0
20260509001119 55 77 0.0 0.9 0.00 0.00 0.00 55 1011.7
20260509000618 55 25 0.0 0.9 0.00 0.00 0.00 56 1011.9
20260509000114 56 126 0.0 0.9 0.00 0.00 0.00 54 1011.9
20260508235611 56 122 0.0 0.0 0.00 0.00 0.00 53 1011.7
20260508235108 56 122 0.0 0.0 0.00 0.00 0.00 54 1012.0
20260508234605 56 132 0.0 0.0 0.00 0.00 0.00 52 1011.8
20260508234101 56 163 0.0 0.9 0.00 0.00 0.00 52 1011.8
20260508233601 57 177 0.0 0.9 0.00 0.00 0.00 51 1011.7
20260508233058 57 143 0.0 0.9 0.00 0.00 0.00 53 1011.7
20260508232555 57 251 0.9 0.9 0.00 0.00 0.00 51 1011.6
20260508232051 57 152 0.0 1.7 0.00 0.00 0.00 50 1011.4
20260508231550 57 149 1.7 2.6 0.00 0.00 0.00 50 1011.5
20260508231046 57 204 0.9 3.5 0.00 0.00 0.00 50 1011.6
20260508230543 57 126 0.9 0.9 0.00 0.00 0.00 50 1011.7
20260508230039 58 17 1.7 2.6 0.00 0.00 0.00 47 1011.6
20260508225537 58 171 0.0 1.7 0.00 0.00 0.00 48 1011.5
20260508225033 58 291 1.7 1.7 0.00 0.00 0.00 48 1011.7
20260508224531 58 140 0.0 1.7 0.00 0.00 0.00 48 1011.7
20260508224028 58 292 2.6 3.5 0.00 0.00 0.00 47 1011.6
20260508223526 58 102 0.9 2.6 0.00 0.00 0.00 49 1011.4
20260508223023 58 133 0.0 0.9 0.00 0.00 0.00 48 1011.6
20260508222521 58 141 0.0 1.7 0.00 0.00 0.00 48 1011.4
20260508222017 59 144 1.7 2.6 0.00 0.00 0.00 48 1011.4
20260508221514 59 164 0.0 1.7 0.00 0.00 0.00 47 1011.5
20260508221009 59 301 2.6 5.2 0.00 0.00 0.00 46 1011.5
20260508220506 60 277 3.5 5.2 0.00 0.00 0.00 47 1011.5
20260508220002 60 278 1.7 3.5 0.00 0.00 0.00 45 1011.8
20260508215459 60 260 1.7 2.6 0.00 0.00 0.00 46 1011.8
20260508214955 60 27 0.9 1.7 0.00 0.00 0.00 45 1011.8
20260508214454 60 70 0.9 1.7 0.00 0.00 0.00 45 1011.8
20260508213949 59 269 1.7 2.6 0.00 0.00 0.00 46 1012.0
20260508213447 60 148 2.6 3.5 0.00 0.00 0.00 46 1011.8
20260508212942 60 67 0.0 0.9 0.00 0.00 0.00 47 1011.8
20260508212439 59 97 0.0 2.6 0.00 0.00 0.00 46 1011.8
20260508211935 58 128 0.9 1.7 0.00 0.00 0.00 50 1012.0
20260508211431 57 133 0.9 1.7 0.00 0.00 0.00 54 1011.9
20260508210928 56 145 0.9 0.9 0.00 0.00 0.00 52 1012.0
20260508210425 56 137 0.0 1.7 0.00 0.00 0.00 53 1011.9
20260508205921 56 95 1.7 1.7 0.00 0.00 0.00 50 1012.5
20260508205419 56 159 2.6 2.6 0.00 0.00 0.00 52 1012.3
20260508204914 56 136 0.0 1.7 0.00 0.00 0.00 52 1012.2
20260508204412 55 121 0.0 0.9 0.00 0.00 0.00 54 1012.6
20260508203907 55 288 1.7 2.6 0.00 0.00 0.00 53 1012.6
20260508203404 55 184 0.0 0.9 0.00 0.00 0.00 52 1012.7
20260508202900 55 114 0.9 3.5 0.00 0.00 0.00 52 1013.0
20260508202357 55 51 1.7 2.6 0.00 0.00 0.00 52 1012.5
20260508201855 56 14 0.9 0.9 0.00 0.00 0.00 51 1012.8